Theta_e
315 315 314 314 313 313 314 314 314 315 315 315 315 315 316 316 317 318 316 315 318 320 323 326 326 324 323 322 323 327 334 329 328 327 328 323 323 319 318 317 317 315 315 314 312
315 315 315 314 314 313 313 314 314 315 315 315 315 315 315 316 319 318 315 316 318 322 327 324 323 323 323 322 321 325 333 330 326 325 326 323 323 319 318 318 316 314 312 313 312
314 315 315 315 315 314 314 314 314 314 315 315 315 315 316 316 320 317 314 314 318 322 325 324 323 323 324 321 320 322 327 324 323 322 322 322 320 320 318 319 318 316 312 312 311
314 314 315 315 315 315 315 314 314 314 315 315 315 315 316 317 322 317 315 314 317 320 322 323 323 323 323 322 319 322 320 319 320 318 318 319 319 318 318 318 318 317 315 313 311
314 314 314 315 315 315 315 315 315 315 315 315 315 316 316 319 318 316 314 314 317 319 321 322 322 321 322 320 320 320 319 318 317 317 317 317 317 318 318 318 317 315 314 312 311
314 314 314 314 314 315 315 316 315 315 315 316 315 316 317 321 316 315 314 315 318 320 320 321 320 319 319 318 319 318 318 317 317 317 317 316 317 316 317 317 316 314 314 312 311
313 314 314 314 314 314 315 316 316 316 315 316 315 316 319 317 316 315 315 315 316 319 320 319 319 319 319 319 317 318 318 317 317 317 317 315 315 316 316 316 316 314 313 313 312
313 313 314 314 314 314 315 315 316 316 316 316 315 315 318 317 316 315 316 317 317 316 317 317 317 317 318 317 318 319 320 322 319 317 316 315 318 317 317 315 316 314 313 313 312
314 313 313 313 314 314 314 316 316 316 316 316 315 315 317 315 315 315 316 317 317 317 315 315 317 319 318 321 322 321 319 319 320 317 317 315 318 317 316 315 315 315 314 314 313
318 315 314 313 313 314 314 316 316 316 316 316 316 316 316 316 315 315 315 315 317 317 319 319 319 321 321 320 321 318 317 317 318 317 316 315 315 316 317 315 315 315 315 314 313
321 319 315 314 313 314 316 316 316 316 316 318 317 317 315 315 314 314 315 315 316 317 319 320 320 322 318 318 317 317 316 317 319 315 315 315 315 316 318 315 315 315 315 315 314
319 320 318 315 313 314 316 320 319 319 318 317 316 316 315 315 315 314 314 316 317 319 319 320 321 317 317 317 317 318 317 318 317 316 314 314 315 316 318 318 316 316 315 316 315
314 318 320 317 314 314 316 319 319 316 320 316 316 316 314 314 316 315 314 316 318 319 319 319 318 316 317 317 318 318 318 315 315 315 316 316 318 317 316 315 315 316 317 316 316
310 313 317 319 314 315 318 319 318 316 320 318 315 315 314 315 316 315 314 316 317 318 318 319 316 316 317 318 316 318 314 315 316 315 317 317 317 320 317 315 314 315 315 316 316
309 310 314 319 320 319 320 318 318 316 324 318 316 315 315 316 316 314 314 315 318 319 317 317 317 317 318 315 314 317 314 314 316 316 316 320 319 318 317 316 316 316 315 314 315
307 308 311 320 319 320 319 317 317 321 322 319 316 316 315 316 316 315 315 315 316 317 317 316 313 314 314 314 313 313 314 315 317 317 323 320 316 320 319 318 316 315 315 316 315
306 307 310 320 318 318 317 317 320 322 320 318 317 317 317 317 317 317 316 316 317 317 318 318 316 312 311 314 315 315 317 324 326 326 324 318 317 317 318 317 317 317 315 315 314
308 306 311 320 320 317 317 320 322 322 320 319 319 318 318 319 318 317 318 318 318 318 318 320 320 315 311 313 313 315 316 319 321 321 319 317 319 321 316 316 315 315 316 315 314
307 307 315 320 318 316 318 320 320 322 320 319 319 319 319 319 318 318 317 319 319 317 319 319 317 310 309 309 311 315 318 315 317 319 319 321 321 318 317 316 316 316 315 315 315
312 316 318 320 316 317 319 320 320 319 319 319 320 319 320 318 317 318 319 319 319 318 317 318 318 313 309 309 310 312 312 318 318 325 322 322 322 320 318 317 316 316 315 314 315
320 319 321 321 317 319 320 320 320 317 318 319 320 320 320 319 317 318 320 317 319 316 315 317 318 313 311 312 315 312 314 314 315 317 321 321 322 317 317 316 315 316 317 316 315
320 320 321 321 319 318 319 319 318 317 317 318 317 320 319 319 318 320 320 319 317 315 315 316 319 317 315 310 309 311 313 315 319 322 316 316 317 316 314 315 315 316 317 317 316
320 319 319 319 318 319 318 319 319 319 318 318 319 320 319 320 320 320 320 314 315 315 317 315 317 319 316 313 311 311 312 313 315 316 319 319 322 315 315 316 317 318 318 318 317
320 321 318 318 318 318 319 320 319 317 318 318 319 319 319 319 320 321 319 314 314 316 314 315 319 320 323 321 317 314 315 312 313 315 318 317 318 318 318 318 318 318 317 317 316
317 319 319 319 318 318 319 320 320 319 318 318 319 319 319 320 320 320 319 314 313 313 312 316 318 318 318 319 317 317 317 314 311 314 316 318 318 318 316 315 318 318 317 317 316
317 320 319 319 317 318 318 320 320 319 317 318 319 319 319 320 320 319 319 317 317 313 314 314 318 318 318 317 316 316 316 316 315 313 314 315 315 315 316 318 318 318 317 316 315
315 319 319 320 318 317 319 319 320 319 318 317 318 319 318 319 320 319 320 319 318 315 314 315 316 317 319 316 316 316 317 316 316 315 315 315 315 316 317 318 318 317 316 315 315
Wind_Speed
1 1 1 1 1 2 2 3 3 2 2 1 1 2 4 5 5 4 3 3 1 3 5 7 5 5 3 4 4 3 3 2 6 3 6 8 4 2 2 5 4 3 3 9 16
1 1 1 1 1 1 2 3 3 3 3 2 1 1 4 3 2 2 5 3 1 2 6 7 6 7 2 3 2 3 3 6 8 10 5 6 4 11 3 7 7 7 7 13 14
1 1 2 2 2 2 2 3 3 3 3 2 1 1 4 3 4 2 5 2 2 2 5 5 6 4 2 2 5 5 4 3 7 7 5 3 2 2 4 5 11 17 16 18 17
2 2 2 2 2 2 2 3 4 4 3 2 1 1 4 3 2 5 5 3 0 0 5 6 6 3 2 4 3 2 4 6 2 2 1 1 2 2 10 5 2 5 18 19 19
3 3 3 3 3 3 3 4 4 5 4 3 2 2 6 5 2 6 4 2 3 4 4 5 8 5 4 3 4 4 4 2 3 1 2 4 6 8 9 9 9 7 14 18 17
6 4 3 3 3 3 4 4 5 5 4 4 3 4 5 7 1 4 3 3 1 2 3 5 5 4 3 4 4 2 1 4 4 4 4 4 9 2 2 14 13 13 16 15 18
7 6 5 4 3 4 4 5 5 4 5 4 3 5 4 2 1 1 3 2 1 1 3 2 3 4 3 4 2 2 4 9 9 8 2 2 5 9 11 12 19 14 16 17 18
8 8 6 5 4 4 4 5 6 5 5 4 4 4 2 4 3 2 3 4 3 2 2 1 2 2 3 1 4 5 5 4 6 8 3 0 5 14 14 14 17 17 17 19 19
10 8 8 6 5 4 3 4 5 5 4 4 3 4 2 1 2 2 3 1 1 3 2 1 2 2 2 5 4 5 3 5 6 7 3 5 5 10 13 14 16 18 19 21 20
13 10 8 7 5 3 3 3 4 4 4 4 4 4 4 2 7 3 1 3 1 3 4 2 5 3 3 4 3 7 6 8 6 5 6 8 11 13 19 21 21 19 20 21 22
17 13 10 8 6 4 7 7 3 3 9 3 3 2 5 4 3 1 4 2 3 5 5 5 3 4 9 7 6 6 7 9 5 4 3 7 9 9 13 27 22 21 20 22 21
20 17 13 10 8 8 12 5 2 2 6 11 6 3 5 5 4 5 3 3 4 6 1 3 4 6 4 3 5 6 8 7 4 3 2 9 15 12 4 4 27 25 22 19 19
22 20 16 11 10 10 13 4 7 4 6 7 9 7 5 8 2 8 4 1 6 7 3 5 4 2 3 6 5 7 4 5 5 10 7 8 5 4 3 1 5 7 20 20 18
21 22 18 12 7 6 10 10 6 6 4 10 8 7 8 5 4 4 5 2 3 4 3 4 2 3 4 4 5 5 6 5 8 8 3 5 4 3 5 6 5 5 10 15 17
19 21 20 18 10 10 8 10 5 3 4 9 11 8 10 7 9 3 5 2 5 3 2 2 1 3 5 3 4 3 3 4 5 6 6 2 0 1 6 6 6 5 8 10 15
19 21 23 22 12 12 10 11 7 3 5 5 7 9 9 9 6 4 3 2 1 2 5 4 1 3 4 2 3 7 5 7 4 3 1 3 4 1 2 4 6 8 3 5 9
17 21 27 25 8 11 13 12 4 5 7 7 6 10 12 7 9 7 8 6 4 4 6 5 4 3 2 4 5 5 5 1 1 1 1 3 2 6 6 6 4 4 7 5 6
15 21 29 27 17 17 19 5 7 1 7 7 8 9 8 9 8 9 6 6 10 4 2 6 3 2 1 4 4 5 4 2 1 3 4 3 3 4 5 6 3 4 5 6 8
13 21 28 28 18 20 13 8 5 4 10 10 12 9 9 9 1 7 7 5 8 10 4 3 4 3 5 3 3 2 2 2 2 1 2 4 5 6 3 5 2 2 7 11 11
17 17 19 19 20 19 6 8 9 4 6 10 8 10 11 11 6 9 10 1 5 2 2 5 3 2 2 2 2 1 3 1 2 2 3 5 2 3 2 5 5 2 6 11 12
20 10 18 21 20 12 9 7 8 8 7 10 5 7 5 8 10 8 7 3 7 2 4 4 1 1 1 4 2 2 2 3 0 1 0 3 5 1 4 7 6 8 6 11 16
13 5 21 25 12 12 12 12 3 9 8 5 2 4 7 8 8 7 7 4 9 11 7 1 0 3 2 3 3 2 3 1 4 1 1 3 6 3 6 6 2 8 11 12 12
9 9 14 28 9 11 13 19 5 6 8 5 5 4 2 6 5 6 6 1 9 6 5 5 3 3 1 0 1 3 5 3 4 3 4 4 5 3 9 5 9 12 18 15 17
10 5 8 18 23 17 15 16 9 11 9 14 5 7 3 5 2 5 4 2 6 2 1 3 2 3 1 2 5 4 5 7 6 4 4 8 8 8 10 6 16 20 14 15 17
8 7 13 9 15 17 15 10 14 8 9 16 5 8 9 6 7 4 5 4 3 4 2 2 3 6 7 2 5 5 6 11 11 11 6 4 8 13 9 9 19 15 14 14 15
6 5 17 11 29 21 15 16 17 19 12 8 10 14 10 7 7 8 9 7 5 6 6 3 2 3 3 7 6 9 9 10 16 15 17 16 22 19 27 18 10 13 13 13 13
27 10 3 7 18 17 17 18 21 17 22 15 19 9 14 14 5 4 19 14 15 10 8 7 4 4 2 6 3 8 11 18 8 8 19 13 20 13 7 6 10 14 16 14 13
Wind_Direction
162 164 170 162 194 189 192 188 189 183 186 183 121 120 134 101 90 43 337 326 334 68 37 4 329 332 4 1 356 292 278 88 62 29 92 126 150 131 168 126 121 112 69 150 178
233 220 232 244 239 218 204 195 195 197 200 207 162 154 169 134 109 68 355 338 191 128 19 358 6 331 94 345 343 300 354 35 26 30 62 141 258 142 170 180 155 142 127 171 181
268 258 252 256 256 234 218 208 208 211 210 217 244 214 188 195 311 325 346 336 199 200 1 329 313 335 326 74 360 14 23 87 51 43 1 128 232 163 204 231 204 190 178 187 188
257 257 260 260 260 249 233 220 215 217 214 218 246 235 185 199 359 323 339 340 134 201 8 313 301 6 334 43 14 190 67 8 76 71 316 264 305 189 223 268 136 109 203 195 192
254 256 254 260 268 261 245 234 224 218 206 205 229 200 179 250 131 339 332 13 53 36 348 344 329 343 51 23 303 22 105 98 128 159 258 302 264 252 270 221 216 184 194 198 199
261 260 266 270 267 256 245 238 232 222 203 204 211 198 214 273 48 323 341 38 25 26 334 350 11 351 39 33 338 57 170 145 175 201 245 262 277 177 252 207 205 195 196 202 205
260 263 263 265 268 263 244 233 230 218 207 206 207 205 258 215 236 335 26 35 70 215 313 312 317 332 354 165 190 207 257 178 191 211 236 280 247 230 223 188 199 203 200 204 208
245 258 260 260 261 264 250 234 219 207 208 196 197 206 301 254 225 51 50 10 30 333 236 273 86 33 346 243 222 237 207 194 134 168 174 144 290 193 180 181 198 208 211 209 213
237 247 255 255 253 255 249 225 201 196 198 186 162 239 192 161 120 235 137 268 330 357 355 341 15 304 241 227 222 214 310 57 153 187 144 203 307 126 167 185 208 212 212 213 211
233 234 245 247 241 234 206 183 171 177 176 179 229 246 208 163 207 193 257 162 261 281 277 269 247 231 239 357 20 343 351 345 325 148 201 244 249 248 222 198 209 216 215 214 212
231 230 232 239 232 203 161 127 157 205 199 264 323 128 147 207 177 137 234 291 262 246 275 172 294 44 32 33 343 318 311 296 358 91 319 254 265 268 264 195 205 215 226 216 218
230 227 226 227 225 205 181 172 291 180 210 241 237 190 144 168 168 186 189 246 189 271 110 229 68 45 34 355 317 294 287 329 58 117 237 277 286 277 247 203 208 206 218 230 214
229 225 219 219 226 214 199 253 267 214 260 189 198 198 195 173 226 154 170 222 273 276 248 314 82 35 348 312 324 312 24 9 320 318 253 286 272 131 128 216 281 238 216 220 222
231 221 211 203 223 202 229 229 220 204 274 163 197 191 179 159 188 176 195 191 220 320 34 51 70 359 308 288 11 307 20 339 318 344 297 16 299 127 150 145 199 225 224 219 226
232 220 201 190 172 176 183 215 198 178 267 148 144 165 165 178 142 177 183 190 290 82 295 47 78 333 293 38 348 349 354 299 303 296 296 132 48 162 151 95 97 139 198 218 222
229 214 196 191 184 176 206 182 159 230 243 159 139 177 164 197 163 133 163 172 106 297 219 84 116 344 9 301 245 309 261 224 239 243 267 71 55 291 70 84 126 136 146 194 217
231 208 191 188 190 212 181 155 205 242 149 164 186 173 191 168 184 192 180 184 189 179 196 150 160 113 318 276 196 241 284 39 314 309 175 90 336 254 128 142 100 100 149 185 207
230 201 189 185 173 174 167 203 242 252 162 145 151 171 195 154 209 191 191 226 208 244 273 190 233 168 79 24 348 329 341 78 196 344 305 154 238 237 132 146 186 225 205 191 187
207 188 188 190 187 173 195 211 207 254 122 149 149 175 207 167 132 173 223 224 193 188 236 180 112 115 40 345 2 13 32 0 312 17 330 234 236 90 104 129 69 278 216 221 213
159 181 200 196 193 173 218 236 212 73 111 159 184 200 183 181 191 187 184 256 151 151 86 4 118 16 136 271 201 297 303 313 264 12 302 308 312 248 211 107 127 189 236 246 239
158 177 188 197 182 191 218 233 243 147 157 184 267 186 243 162 199 189 187 348 114 117 81 331 84 143 111 204 125 168 186 226 151 51 190 325 278 1 49 73 39 359 326 266 256
176 200 182 192 184 207 223 226 279 140 180 242 274 242 228 148 188 198 201 70 136 151 164 175 305 158 101 74 45 325 314 335 112 176 292 150 274 123 91 88 280 277 284 288 275
197 153 175 175 202 218 225 233 199 176 187 203 226 235 289 161 180 219 92 35 143 185 164 186 223 163 159 108 27 237 187 237 87 82 223 145 257 149 153 197 273 326 330 318 293
205 159 157 202 221 206 201 221 200 225 213 219 236 176 155 217 141 183 111 115 185 202 126 122 280 249 152 121 122 186 202 195 184 151 228 227 266 250 300 322 333 325 314 310 308
239 206 182 180 210 225 233 200 206 195 223 212 218 207 190 183 168 193 110 126 175 188 186 209 234 245 264 257 165 230 204 197 210 218 213 219 251 276 304 312 310 312 327 323 317
244 254 172 195 198 201 204 217 207 203 174 200 221 194 210 225 177 186 140 173 180 159 185 197 249 29 296 258 238 266 241 236 219 225 246 262 280 279 277 280 306 310 308 309 314
215 250 230 222 187 193 205 207 207 200 202 207 204 204 209 215 219 77 185 182 156 152 184 153 186 159 246 59 35 293 237 216 217 219 217 228 240 265 269 292 286 291 296 294 302